West Chester Brandywine Airpo, PA

12:38 AM EST on November 21, 2019 (GMT -0500)
West Chester Brandywine Airpo

Weather History for KOQN - September, 2019

Change the Weather History Date:

Monday, September 2, 2019

  Actual Average (KPHL) Record (KPHL)
Temperature  
Mean Temperature 76 °F -  
Max Temperature 84 °F 82 °F 100 °F (1953)
Min Temperature 68 °F 65 °F 47 °F (1963)
Cooling Degree Days 11    
Growing Degree Days 26 (Base 50)    
Moisture  
Dew Point 67 °F    
Average Humidity 83    
Maximum Humidity 94    
Minimum Humidity 54    
Precipitation  
Precipitation 0.02 in - - ()
Sea Level Pressure  
Sea Level Pressure 30.06 in    
Wind  
Wind Speed 2 mph (SSW)    
Max Wind Speed 12 mph    
Max Gust Speed 18 mph    
Visibility 10 miles    
Events Rain , Thunderstorm    
Averages and records for this station are not official NWS values.
T = Trace of Precipitation, MM = Missing Value Source: NWS Daily Summary

Daily Weather History Graph

Daily Weather History Graph

Search for Another Location

Airport or City:

Astronomy

Sep. 02, 2019 Rise Set
Actual Time 6:30 AM EDT 7:32 PM EDT
Civil Twilight 6:03 AM EDT 8:00 PM EDT
Nautical Twilight 5:30 AM EDT 8:33 PM EDT
Astronomical Twilight 4:55 AM EDT 9:07 PM EDT
Moon 10:10 AM EDT (9/2) 9:52 PM EDT (9/2)
Length of Visible Light 13h 57m
Length of Day
13h 01m
Waxing Crescent, 15% of the Moon is Illuminated
Sep 2
Waxing Crescent
Sep 5
First Quarter
Sep 14
Full
Sep 21
Last Quarter
Sep 28
New

Hourly Weather History & Observations

Time (EDT) Temp. Heat Index Dew Point Humidity Pressure Visibility Wind Dir Wind Speed Gust Speed Precip Events Conditions
12:15 AM 68.0 °F - 62.6 °F 83% 30.21 in 10.0 mi Calm Calm - N/A   Clear
12:35 AM 68.0 °F - 62.6 °F 83% 30.21 in 10.0 mi Calm Calm - N/A   Clear
12:55 AM 68.0 °F - 62.6 °F 83% 30.20 in 10.0 mi Calm Calm - N/A   Clear
1:15 AM 68.0 °F - 62.6 °F 83% 30.20 in 10.0 mi Calm Calm - N/A   Clear
1:35 AM 68.0 °F - 62.6 °F 83% 30.19 in 10.0 mi ESE 3.5 mph - N/A   Scattered Clouds
1:55 AM 68.0 °F - 62.6 °F 83% 30.18 in 10.0 mi SE 4.6 mph - N/A   Mostly Cloudy
2:15 AM 68.0 °F - 62.6 °F 83% 30.18 in 10.0 mi Calm Calm - N/A   Mostly Cloudy
2:35 AM 68.0 °F - 62.6 °F 83% 30.17 in 10.0 mi Calm Calm - N/A   Overcast
2:55 AM 68.0 °F - 62.6 °F 83% 30.17 in 10.0 mi Calm Calm - N/A   Overcast
3:15 AM 68.0 °F - 62.6 °F 83% 30.16 in 10.0 mi Calm Calm - N/A   Overcast
3:35 AM 68.0 °F - 62.6 °F 83% 30.15 in 10.0 mi Calm Calm - N/A   Mostly Cloudy
4:15 AM 68.0 °F - 64.4 °F 88% 30.14 in 10.0 mi ESE 3.5 mph - N/A   Overcast
4:35 AM 68.0 °F - 64.4 °F 88% 30.14 in 10.0 mi ESE 3.5 mph - N/A   Overcast
4:55 AM 68.0 °F - 64.4 °F 88% 30.13 in 10.0 mi Calm Calm - N/A   Overcast
5:15 AM 68.0 °F - 64.4 °F 88% 30.13 in 10.0 mi East 3.5 mph - N/A   Overcast
5:35 AM 68.0 °F - 64.4 °F 88% 30.13 in 10.0 mi Calm Calm - N/A   Overcast
5:55 AM 68.0 °F - 64.4 °F 88% 30.12 in 10.0 mi SE 5.8 mph - N/A   Overcast
6:15 AM 68.0 °F - 64.4 °F 88% 30.12 in 10.0 mi Calm Calm - N/A   Mostly Cloudy
6:35 AM 68.0 °F - 64.4 °F 88% 30.12 in 10.0 mi SE 3.5 mph - N/A   Overcast
6:55 AM 68.0 °F - 64.4 °F 88% 30.12 in 10.0 mi Calm Calm - N/A   Overcast
7:15 AM 68.0 °F - 64.4 °F 88% 30.12 in 10.0 mi SSE 3.5 mph - N/A   Overcast
7:35 AM 68.0 °F - 64.4 °F 88% 30.12 in 10.0 mi SE 3.5 mph - N/A   Overcast
7:55 AM 69.8 °F - 66.2 °F 88% 30.11 in 10.0 mi SE 4.6 mph - N/A   Overcast
8:15 AM 69.8 °F - 66.2 °F 88% 30.10 in 10.0 mi SE 3.5 mph - N/A   Overcast
8:35 AM 69.8 °F - 68.0 °F 94% 30.11 in 10.0 mi SE 3.5 mph - N/A Thunderstorm Thunderstorm
8:55 AM 71.6 °F - 68.0 °F 88% 30.10 in 10.0 mi South 4.6 mph - N/A Thunderstorm Overcast
9:15 AM 71.6 °F - 68.0 °F 88% 30.09 in 5.0 mi South 3.5 mph - N/A Rain , Thunderstorm Rain
9:35 AM 69.8 °F - 68.0 °F 94% 30.10 in 7.0 mi SW 3.5 mph - N/A Thunderstorm Unknown
9:55 AM 69.8 °F - 68.0 °F 94% 30.09 in 10.0 mi SSW 3.5 mph - N/A   Overcast
10:15 AM 71.6 °F - 68.0 °F 88% 30.08 in 10.0 mi Calm Calm - N/A Thunderstorm Overcast
10:35 AM 71.6 °F - 68.0 °F 88% 30.07 in 10.0 mi South 4.6 mph - N/A   Overcast
10:55 AM 71.6 °F - 69.8 °F 94% 30.07 in 10.0 mi SSW 4.6 mph - N/A   Overcast
11:15 AM 73.4 °F - 69.8 °F 88% 30.07 in 10.0 mi SSW 6.9 mph - N/A   Overcast
11:35 AM 73.4 °F - 69.8 °F 88% 30.06 in 10.0 mi Calm Calm - N/A   Overcast
11:55 AM 75.2 °F - 69.8 °F 83% 30.05 in 10.0 mi SW 8.1 mph - N/A   Mostly Cloudy
12:15 PM 77.0 °F - 69.8 °F 78% 30.05 in 10.0 mi SW 8.1 mph - N/A   Mostly Cloudy
12:35 PM 78.8 °F - 68.0 °F 69% 30.04 in 10.0 mi WSW 11.5 mph - N/A   Mostly Cloudy
12:55 PM 78.8 °F - 68.0 °F 69% 30.04 in 10.0 mi SW 8.1 mph - N/A   Scattered Clouds
1:15 PM 78.8 °F - 66.2 °F 65% 30.03 in 10.0 mi SW 8.1 mph 18.4 mph N/A   Scattered Clouds
1:35 PM 80.6 °F 83.2 °F 68.0 °F 65% 30.03 in 10.0 mi SW 8.1 mph 16.1 mph N/A   Scattered Clouds
1:55 PM 80.6 °F 82.7 °F 66.2 °F 61% 30.02 in 10.0 mi SW 9.2 mph - N/A   Scattered Clouds
2:15 PM 80.6 °F 82.7 °F 66.2 °F 61% 30.01 in 10.0 mi WSW 8.1 mph - N/A   Mostly Cloudy
2:35 PM 82.4 °F 84.6 °F 66.2 °F 58% 30.00 in 10.0 mi SW 8.1 mph - N/A   Mostly Cloudy
2:55 PM 82.4 °F 84.6 °F 66.2 °F 58% 29.99 in 10.0 mi SW 9.2 mph - N/A   Scattered Clouds
3:15 PM 82.4 °F 84.6 °F 66.2 °F 58% 29.99 in 10.0 mi SW 6.9 mph - N/A   Scattered Clouds
3:35 PM 84.2 °F 86.6 °F 66.2 °F 55% 29.97 in 10.0 mi WSW 10.4 mph 17.3 mph N/A   Scattered Clouds
3:55 PM 82.4 °F 83.9 °F 64.4 °F 54% 29.97 in 10.0 mi WSW 6.9 mph - N/A   Scattered Clouds
4:15 PM 80.6 °F 82.7 °F 66.2 °F 61% 29.98 in 10.0 mi NNW 9.2 mph - N/A   Mostly Cloudy
4:35 PM 73.4 °F - 69.8 °F 88% 29.98 in 7.0 mi Calm Calm - 0.01 in Rain Rain
4:55 PM 73.4 °F - 69.8 °F 88% 29.98 in 10.0 mi Calm Calm - 0.02 in   Mostly Cloudy
5:15 PM 73.4 °F - 69.8 °F 88% 29.97 in 10.0 mi Calm Calm - N/A   Scattered Clouds
5:35 PM 73.4 °F - 69.8 °F 88% 29.98 in 10.0 mi Calm Calm - N/A   Clear
6:15 PM 71.6 °F - 69.8 °F 94% 29.99 in 10.0 mi Calm Calm - N/A   Clear
6:35 PM 71.6 °F - 68.0 °F 88% 29.99 in 10.0 mi Calm Calm - N/A   Clear
6:55 PM 71.6 °F - 69.8 °F 94% 29.98 in 10.0 mi Calm Calm - N/A   Clear
7:15 PM 71.6 °F - 69.8 °F 94% 29.97 in 10.0 mi Calm Calm - N/A   Clear
7:35 PM 71.6 °F - 69.8 °F 94% 29.98 in 10.0 mi Calm Calm - N/A Thunderstorm Clear
7:55 PM 71.6 °F - 69.8 °F 94% 29.99 in 10.0 mi Calm Calm - N/A Thunderstorm Clear
8:15 PM 71.6 °F - 69.8 °F 94% 29.99 in 10.0 mi Calm Calm - N/A   Clear
8:35 PM 71.6 °F - 68.0 °F 88% 30.00 in 10.0 mi West 3.5 mph - N/A   Clear
8:55 PM 71.6 °F - 68.0 °F 88% 30.00 in 10.0 mi Calm Calm - N/A   Mostly Cloudy
9:15 PM 71.6 °F - 68.0 °F 88% 30.00 in 10.0 mi West 3.5 mph - N/A   Mostly Cloudy
9:35 PM 71.6 °F - 68.0 °F 88% 30.01 in 10.0 mi WNW 3.5 mph - N/A   Scattered Clouds
9:55 PM 71.6 °F - 68.0 °F 88% 30.01 in 10.0 mi Calm Calm - N/A   Scattered Clouds
10:15 PM 69.8 °F - 68.0 °F 94% 30.02 in 10.0 mi Calm Calm - N/A   Overcast
10:35 PM 71.6 °F - 68.0 °F 88% 30.02 in 10.0 mi WNW 3.5 mph - N/A   Mostly Cloudy
10:55 PM 71.6 °F - 66.2 °F 83% 30.01 in 10.0 mi Calm Calm - N/A   Scattered Clouds
11:15 PM 71.6 °F - 66.2 °F 83% 30.01 in 10.0 mi Calm Calm - N/A   Mostly Cloudy
11:35 PM 69.8 °F - 66.2 °F 88% 30.01 in 10.0 mi West 3.5 mph - N/A   Mostly Cloudy
11:55 PM 69.8 °F - 66.2 °F 88% 30.02 in 10.0 mi Calm Calm - N/A   Overcast